Regional Weather Roundup
Issued by NWS

Home | Current Version | Previous Version | Graphics & Text | Print | Product List | Glossary On
Versions: 1 2 3 4 5 6 7 8 9 10 11 12 13 14 15 16 17 18 19 20 21 22 23 24 25 26 27 28 29 30 31 32 33 34 35 36 37 38 39 40 41 42 43 44 45 46 47 48 49 50
000
ASUS43 KOAX 180602
RWRNE

WEATHER ROUNDUP FOR NEBRASKA
NATIONAL WEATHER SERVICE OMAHA NE
1200 AM CST THU DEC 18 2014

NOTES: SATELLITE DATA IS BEING USED TO AUGMENT CLOUD COVER ABOVE
       12000 FEET.
       "FAIR" INDICATES FEW OR NO CLOUDS BELOW 12,000 FEET WITH NO
       SIGNIFICANT WEATHER AND/OR OBSTRUCTIONS TO VISIBILITY.

  * THESE STATIONS DO NOT REPORT WEATHER SUCH AS RAIN...SNOW OR FOG.

NEZ001>004-019>022-054>056-180700-
NEBRASKA PANHANDLE

CITY           SKY/WX    TMP DP  RH WIND       PRES   REMARKS
SCOTTSBLUFF    FOG       18  16  92 CALM      30.02S VSB 1/4
6HR MIN TEMP:  15; 6HR MAX TEMP:  20;

ALLIANCE       FOG       21  19  92 SW9       30.01S VSB 1/2 WCI  11
6HR MIN TEMP:  21; 6HR MAX TEMP:  23;

CHADRON        FOG       20  17  88 SW7       30.04R VSB 3/4 WCI  11
6HR MIN TEMP:  10; 6HR MAX TEMP:  20;

KIMBALL        PTCLDY    26  23  89 W3        29.96S
SIDNEY         CLOUDY    22  20  92 SW10      30.00F FOG     WCI  11
6HR MIN TEMP:  21; 6HR MAX TEMP:  22;

$$

NEZ057>060-069>072-079>082-180700-
SOUTHWEST NEBRASKA

CITY           SKY/WX    TMP DP  RH WIND       PRES   REMARKS
NORTH PLATTE   CLOUDY    23  21  92 S3        30.12S
6HR MIN TEMP:  22; 6HR MAX TEMP:  23;

IMPERIAL       CLOUDY    25  21  85 S6        30.08S FOG     WCI  18
6HR MIN TEMP:  24; 6HR MAX TEMP:  25;

MCCOOK         LGT SNOW  25  24  96 SE6       30.12F FOG     WCI  18
6HR MIN TEMP:  24; 6HR MAX TEMP:  26; 6HR PCP: TRACE;

$$

NEZ005>010-023>029-035>040-094-180700-
NORTH CENTRAL NEBRASKA

CITY           SKY/WX    TMP DP  RH WIND       PRES   REMARKS
VALENTINE      CLOUDY    23  20  88 S14       30.09F WCI  11
6HR MIN TEMP:  22; 6HR MAX TEMP:  23;

AINSWORTH      CLOUDY    21  20  96 S3        30.11S FOG
BROKEN BOW     CLOUDY    24  22  91 SE7       30.13F FOG     WCI  16
6HR MIN TEMP:  22; 6HR MAX TEMP:  24;

ORD            CLOUDY    23  20  88 SE7       30.17S WCI  15
6HR MIN TEMP:  22; 6HR MAX TEMP:  24;

$$

NEZ041-046>049-061>064-073>077-083>087-180700-
SOUTH CENTRAL NEBRASKA

CITY           SKY/WX    TMP DP  RH WIND       PRES   REMARKS
GRAND ISLAND   CLOUDY    24  18  77 SE5       30.20S WCI  18
6HR MIN TEMP:  24; 6HR MAX TEMP:  25;

AURORA         CLOUDY    25  20  83 E5        30.19F WCI  19
HASTINGS       CLOUDY    25  18  74 SE7       30.17F WCI  17
6HR MIN TEMP:  24; 6HR MAX TEMP:  25;

KEARNEY *      CLOUDY    25  19  80 E6        30.17S WCI  18
$$

NEZ011>018-030>034-042>045-180700-
NORTHEAST NEBRASKA

CITY           SKY/WX    TMP DP  RH WIND       PRES   REMARKS
NORFOLK        CLOUDY    25  18  74 SE7       30.22F WCI  17
6HR MIN TEMP:  25; 6HR MAX TEMP:  25;

ALBION         CLOUDY    24  19  80 SE6       30.21S WCI  17
COLUMBUS *     CLOUDY    25  16  68 SE5       30.24S WCI  19
FREMONT        CLOUDY    28  21  75 CALM      30.26S
TEKAMAH        CLOUDY    27  20  75 E7        30.27F WCI  19
6HR MIN TEMP:  26; 6HR MAX TEMP:  28;

$$

NEZ050>053-065>068-078-088>093-180700-
SOUTHEAST NEBRASKA

CITY           SKY/WX    TMP DP  RH WIND       PRES   REMARKS
LINCOLN        CLOUDY    27  19  72 SE6       30.26S WCI  20
6HR MIN TEMP:  26; 6HR MAX TEMP:  27;

OMAHA EPPLEY   CLOUDY    28  20  71 E5        30.28S WCI  23
6HR MIN TEMP:  28; 6HR MAX TEMP:  29;

BEATRICE       CLOUDY    27  21  79 E5        30.22F WCI  22
FALLS CITY     CLOUDY    29  22  75 SE3       30.26R
6HR MIN TEMP:  28; 6HR MAX TEMP:  29;

NEBRASKA CITY  CLOUDY    28  20  72 CALM      30.25S
PLATTSMOUTH    CLOUDY    27  20  75 E3        30.25F
$$

NEZ044-045-051>053-067-180700-
OMAHA AREA

CITY           SKY/WX    TMP DP  RH WIND       PRES   REMARKS
OMAHA EPPLEY   CLOUDY    28  20  71 E5        30.28S WCI  23
6HR MIN TEMP:  28; 6HR MAX TEMP:  29;

FREMONT        CLOUDY    28  21  75 CALM      30.26S
OFFUTT AFB     CLOUDY    28  20  73 E3        30.26S
PLATTSMOUTH    CLOUDY    27  20  75 E3        30.25F
WAHOO          CLOUDY    28  20  72 E3        30.24F
$$



USA.gov is the U.S. government's official web portal to all federal, state and local government web resources and services.